Year,Month,Day,Hour,Minute,Value (Times are PST for windspeed in km/hr)
2012,03,12,00,00,14.20
2012,03,12,00,01,10.30
2012,03,12,00,02,10.00
2012,03,12,00,03,9.90
2012,03,12,00,04,7.40
2012,03,12,00,05,10.90
2012,03,12,00,06,7.50
2012,03,12,00,07,17.90
2012,03,12,00,08,8.40
2012,03,12,00,09,7.30
2012,03,12,00,10,7.10
2012,03,12,00,11,4.40
2012,03,12,00,12,12.00
2012,03,12,00,13,16.20
2012,03,12,00,14,8.40
2012,03,12,00,15,11.90
2012,03,12,00,16,8.50
2012,03,12,00,17,12.20
2012,03,12,00,18,10.40
2012,03,12,00,19,10.50
2012,03,12,00,20,18.70
2012,03,12,00,21,12.70
2012,03,12,00,22,21.60
2012,03,12,00,23,18.30
2012,03,12,00,24,20.70
2012,03,12,00,25,13.60
2012,03,12,00,26,14.70
2012,03,12,00,27,22.00
2012,03,12,00,28,10.50
2012,03,12,00,29,11.90
2012,03,12,00,30,16.80
2012,03,12,00,31,20.10
2012,03,12,00,32,17.60
2012,03,12,00,33,15.40
2012,03,12,00,34,9.30
2012,03,12,00,35,14.80
2012,03,12,00,36,15.30
2012,03,12,00,37,23.70
2012,03,12,00,38,20.10
2012,03,12,00,39,18.10
2012,03,12,00,40,19.30
2012,03,12,00,41,20.30
2012,03,12,00,42,26.00
2012,03,12,00,43,20.20
2012,03,12,00,44,16.70
2012,03,12,00,45,20.80
2012,03,12,00,46,23.20
2012,03,12,00,47,22.30
2012,03,12,00,48,22.00
2012,03,12,00,49,19.10
2012,03,12,00,50,21.90
2012,03,12,00,51,23.50
2012,03,12,00,52,27.50
2012,03,12,00,53,25.50
2012,03,12,00,54,22.40
2012,03,12,00,55,19.20
2012,03,12,00,56,22.20
2012,03,12,00,57,27.00
2012,03,12,00,58,21.50
2012,03,12,00,59,24.00
2012,03,12,01,00,24.40
2012,03,12,01,01,22.00
2012,03,12,01,02,24.20
2012,03,12,01,03,25.90
2012,03,12,01,04,30.90
2012,03,12,01,05,17.10
2012,03,12,01,06,19.80
2012,03,12,01,07,20.70
2012,03,12,01,08,29.30
2012,03,12,01,09,24.10
2012,03,12,01,10,21.30
2012,03,12,01,11,20.40
2012,03,12,01,12,23.30
2012,03,12,01,13,24.60
2012,03,12,01,14,29.60
2012,03,12,01,15,27.00
2012,03,12,01,16,26.20
2012,03,12,01,17,32.70
2012,03,12,01,18,27.40
2012,03,12,01,19,21.20
2012,03,12,01,20,28.40
2012,03,12,01,21,25.20
2012,03,12,01,22,24.40
2012,03,12,01,23,25.70
2012,03,12,01,24,20.00
2012,03,12,01,25,15.60
2012,03,12,01,26,22.30
2012,03,12,01,27,24.40
2012,03,12,01,28,27.00
2012,03,12,01,29,19.60
2012,03,12,01,30,23.00
2012,03,12,01,31,19.70
2012,03,12,01,32,19.60
2012,03,12,01,33,19.50
2012,03,12,01,34,21.10
2012,03,12,01,35,22.40
2012,03,12,01,36,17.00
2012,03,12,01,37,15.00
2012,03,12,01,38,14.80
2012,03,12,01,39,27.80
2012,03,12,01,40,27.00
2012,03,12,01,41,21.70
2012,03,12,01,42,23.20
2012,03,12,01,43,26.90
2012,03,12,01,44,20.00
2012,03,12,01,45,21.70
2012,03,12,01,46,22.20
2012,03,12,01,47,22.50
2012,03,12,01,48,18.90
2012,03,12,01,49,22.00
2012,03,12,01,50,18.80
2012,03,12,01,51,15.30
2012,03,12,01,52,25.50
2012,03,12,01,53,23.70
2012,03,12,01,54,33.40
2012,03,12,01,55,28.20
2012,03,12,01,56,31.10
2012,03,12,01,57,28.10
2012,03,12,01,58,29.40
2012,03,12,01,59,27.60
2012,03,12,02,00,27.10
2012,03,12,02,01,27.80
2012,03,12,02,02,31.50
2012,03,12,02,03,27.60
2012,03,12,02,04,28.50
2012,03,12,02,05,27.50
2012,03,12,02,06,26.20
2012,03,12,02,07,33.30
2012,03,12,02,08,29.20
2012,03,12,02,09,34.00
2012,03,12,02,10,36.00
2012,03,12,02,11,23.80
2012,03,12,02,12,35.40
2012,03,12,02,13,36.00
2012,03,12,02,14,32.70
2012,03,12,02,15,29.10
2012,03,12,02,16,26.50
2012,03,12,02,17,31.90
2012,03,12,02,18,33.30
2012,03,12,02,19,30.40
2012,03,12,02,20,35.90
2012,03,12,02,21,34.00
2012,03,12,02,22,33.30
2012,03,12,02,23,33.60
2012,03,12,02,24,28.90
2012,03,12,02,25,31.90
2012,03,12,02,26,32.30
2012,03,12,02,27,32.40
2012,03,12,02,28,33.30
2012,03,12,02,29,34.00
2012,03,12,02,30,26.10
2012,03,12,02,31,27.60
2012,03,12,02,32,27.20
2012,03,12,02,33,27.10
2012,03,12,02,34,27.90
2012,03,12,02,35,25.40
2012,03,12,02,36,34.60
2012,03,12,02,37,34.00
2012,03,12,02,38,30.30
2012,03,12,02,39,30.90
2012,03,12,02,40,25.80
2012,03,12,02,41,27.80
2012,03,12,02,42,35.70
2012,03,12,02,43,32.30
2012,03,12,02,44,34.00
2012,03,12,02,45,34.20
2012,03,12,02,46,30.20
2012,03,12,02,47,25.30
2012,03,12,02,48,35.00
2012,03,12,02,49,27.00
2012,03,12,02,50,29.90
2012,03,12,02,51,31.60
2012,03,12,02,52,32.10
2012,03,12,02,53,28.80
2012,03,12,02,54,35.70
2012,03,12,02,55,27.70
2012,03,12,02,56,29.70
2012,03,12,02,57,32.30
2012,03,12,02,58,32.80
2012,03,12,02,59,31.70
2012,03,12,03,00,31.20
2012,03,12,03,01,29.70
2012,03,12,03,02,33.60
2012,03,12,03,03,31.80
2012,03,12,03,04,32.50
2012,03,12,03,05,30.30
2012,03,12,03,06,37.50
2012,03,12,03,07,37.00
2012,03,12,03,08,37.80
2012,03,12,03,09,32.00
2012,03,12,03,10,30.60
2012,03,12,03,11,29.40
2012,03,12,03,12,31.00
2012,03,12,03,13,23.20
2012,03,12,03,14,24.80
2012,03,12,03,15,31.50
2012,03,12,03,16,37.20
2012,03,12,03,17,31.30
2012,03,12,03,18,29.30
2012,03,12,03,19,30.90
2012,03,12,03,20,28.10
2012,03,12,03,21,33.60
2012,03,12,03,22,33.70
2012,03,12,03,23,24.70
2012,03,12,03,24,22.90
2012,03,12,03,25,21.40
2012,03,12,03,26,29.10
2012,03,12,03,27,35.10
2012,03,12,03,28,37.00
2012,03,12,03,29,37.20
2012,03,12,03,30,34.80
2012,03,12,03,31,32.20
2012,03,12,03,32,29.70
2012,03,12,03,33,26.70
2012,03,12,03,34,34.60
2012,03,12,03,35,27.20
2012,03,12,03,36,38.40
2012,03,12,03,37,29.20
2012,03,12,03,38,33.30
2012,03,12,03,39,30.10
2012,03,12,03,40,20.60
2012,03,12,03,41,21.80
2012,03,12,03,42,35.60
2012,03,12,03,43,22.70
2012,03,12,03,44,25.70
2012,03,12,03,45,18.70
2012,03,12,03,46,24.90
2012,03,12,03,47,28.20
2012,03,12,03,48,26.50
2012,03,12,03,49,26.50
2012,03,12,03,50,26.30
2012,03,12,03,51,32.70
2012,03,12,03,52,30.20
2012,03,12,03,53,28.50
2012,03,12,03,54,31.60
2012,03,12,03,55,20.00
2012,03,12,03,56,35.20
2012,03,12,03,57,31.50
2012,03,12,03,58,27.40
2012,03,12,03,59,27.80
2012,03,12,04,00,28.30
2012,03,12,04,01,30.30
2012,03,12,04,02,21.00
2012,03,12,04,03,28.20
2012,03,12,04,04,29.00
2012,03,12,04,05,22.50
2012,03,12,04,06,24.50
2012,03,12,04,07,24.30
2012,03,12,04,08,31.10
2012,03,12,04,09,26.10
2012,03,12,04,10,23.10
2012,03,12,04,11,25.80
2012,03,12,04,12,21.10
2012,03,12,04,13,14.10
2012,03,12,04,14,26.30
2012,03,12,04,15,17.90
2012,03,12,04,16,24.50
2012,03,12,04,17,24.80
2012,03,12,04,18,25.00
2012,03,12,04,19,24.70
2012,03,12,04,20,25.90
2012,03,12,04,21,23.00
2012,03,12,04,22,24.90
2012,03,12,04,23,26.60
2012,03,12,04,24,26.20
2012,03,12,04,25,18.70
2012,03,12,04,26,23.70
2012,03,12,04,27,31.00
2012,03,12,04,28,27.20
2012,03,12,04,29,28.70
2012,03,12,04,30,30.00
2012,03,12,04,31,32.80
2012,03,12,04,32,28.20
2012,03,12,04,33,30.70
2012,03,12,04,34,33.20
2012,03,12,04,35,30.80
2012,03,12,04,36,42.00
2012,03,12,04,37,33.20
2012,03,12,04,38,24.80
2012,03,12,04,39,33.20
2012,03,12,04,40,36.80
2012,03,12,04,41,37.70
2012,03,12,04,42,29.60
2012,03,12,04,43,33.00
2012,03,12,04,44,35.40
2012,03,12,04,45,35.00
2012,03,12,04,46,32.50
2012,03,12,04,47,38.30
2012,03,12,04,48,33.90
2012,03,12,04,49,31.40
2012,03,12,04,50,27.00
2012,03,12,04,51,32.30
2012,03,12,04,52,29.90
2012,03,12,04,53,34.40
2012,03,12,04,54,34.70
2012,03,12,04,55,30.80
2012,03,12,04,56,34.90
2012,03,12,04,57,38.70
2012,03,12,04,58,38.60
2012,03,12,04,59,29.40
2012,03,12,05,00,36.50
2012,03,12,05,01,37.50
2012,03,12,05,02,33.00
2012,03,12,05,03,38.50
2012,03,12,05,04,34.00
2012,03,12,05,05,39.30
2012,03,12,05,06,40.60
2012,03,12,05,07,31.60
2012,03,12,05,08,39.60
2012,03,12,05,09,37.70
2012,03,12,05,10,38.90
2012,03,12,05,11,41.50
2012,03,12,05,12,36.90
2012,03,12,05,13,35.60
2012,03,12,05,14,36.90
2012,03,12,05,15,39.80
2012,03,12,05,16,46.20
2012,03,12,05,17,39.00
2012,03,12,05,18,34.50
2012,03,12,05,19,36.80
2012,03,12,05,20,35.50
2012,03,12,05,21,33.30
2012,03,12,05,22,38.00
2012,03,12,05,23,31.80
2012,03,12,05,24,41.60
2012,03,12,05,25,33.30
2012,03,12,05,26,36.10
2012,03,12,05,27,45.10
2012,03,12,05,28,39.50
2012,03,12,05,29,45.40
2012,03,12,05,30,38.10
2012,03,12,05,31,47.00
2012,03,12,05,32,36.20
2012,03,12,05,33,38.00
2012,03,12,05,34,44.40
2012,03,12,05,35,43.50
2012,03,12,05,36,40.60
2012,03,12,05,37,36.80
2012,03,12,05,38,40.60
2012,03,12,05,39,41.30
2012,03,12,05,40,43.00
2012,03,12,05,41,43.50
2012,03,12,05,42,39.60
2012,03,12,05,43,44.40
2012,03,12,05,44,39.20
2012,03,12,05,45,43.20
2012,03,12,05,46,41.60
2012,03,12,05,47,38.00
2012,03,12,05,48,39.30
2012,03,12,05,49,41.80
2012,03,12,05,50,33.90
2012,03,12,05,51,34.30
2012,03,12,05,52,39.40
2012,03,12,05,53,41.00
2012,03,12,05,54,40.70
2012,03,12,05,55,43.00
2012,03,12,05,56,34.00
2012,03,12,05,57,44.10
2012,03,12,05,58,53.10
2012,03,12,05,59,43.20
2012,03,12,06,00,36.00
2012,03,12,06,01,45.60
2012,03,12,06,02,42.30
2012,03,12,06,03,36.90
2012,03,12,06,04,42.40
2012,03,12,06,05,42.40
2012,03,12,06,06,45.90
2012,03,12,06,07,43.20
2012,03,12,06,08,35.30
2012,03,12,06,09,41.80
2012,03,12,06,10,39.40
2012,03,12,06,11,39.50
2012,03,12,06,12,35.30
2012,03,12,06,13,53.10
2012,03,12,06,14,46.70
2012,03,12,06,15,35.20
2012,03,12,06,16,30.60
2012,03,12,06,17,41.50
2012,03,12,06,18,40.50
2012,03,12,06,19,33.50
2012,03,12,06,20,42.00
2012,03,12,06,21,42.30
2012,03,12,06,22,45.30
2012,03,12,06,23,43.30
2012,03,12,06,24,39.30
2012,03,12,06,25,48.20
2012,03,12,06,26,44.80
2012,03,12,06,27,47.00
2012,03,12,06,28,46.40
2012,03,12,06,29,31.50
2012,03,12,06,30,44.20
2012,03,12,06,31,51.60
2012,03,12,06,32,41.80
2012,03,12,06,33,43.40
2012,03,12,06,34,45.10
2012,03,12,06,35,35.00
2012,03,12,06,36,43.50
2012,03,12,06,37,46.30
2012,03,12,06,38,40.10
2012,03,12,06,39,45.50
2012,03,12,06,40,46.60
2012,03,12,06,41,49.70
2012,03,12,06,42,41.30
2012,03,12,06,43,38.90
2012,03,12,06,44,42.80
2012,03,12,06,45,39.30
2012,03,12,06,46,43.70
2012,03,12,06,47,42.50
2012,03,12,06,48,48.80
2012,03,12,06,49,43.00
2012,03,12,06,50,40.40
2012,03,12,06,51,46.70
2012,03,12,06,52,37.30
2012,03,12,06,53,43.90
2012,03,12,06,54,47.20
2012,03,12,06,55,40.40
2012,03,12,06,56,47.20
2012,03,12,06,57,44.70
2012,03,12,06,58,40.90
2012,03,12,06,59,48.00
2012,03,12,07,00,43.50
2012,03,12,07,01,47.10
2012,03,12,07,02,40.00
2012,03,12,07,03,47.20
2012,03,12,07,04,47.40
2012,03,12,07,05,50.40
2012,03,12,07,06,49.20
2012,03,12,07,07,51.40
2012,03,12,07,08,48.10
2012,03,12,07,09,49.50
2012,03,12,07,10,37.50
2012,03,12,07,11,48.20
2012,03,12,07,12,38.90
2012,03,12,07,13,43.30
2012,03,12,07,14,51.80
2012,03,12,07,15,44.30
2012,03,12,07,16,51.70
2012,03,12,07,17,50.10
2012,03,12,07,18,48.30
2012,03,12,07,19,38.40
2012,03,12,07,20,48.40
2012,03,12,07,21,48.10
2012,03,12,07,22,45.40
2012,03,12,07,23,44.30
2012,03,12,07,24,46.40
2012,03,12,07,25,53.20
2012,03,12,07,26,52.20
2012,03,12,07,27,46.80
2012,03,12,07,28,48.20
2012,03,12,07,29,49.70
2012,03,12,07,30,49.50
2012,03,12,07,31,48.10
2012,03,12,07,32,47.60
2012,03,12,07,33,43.10
2012,03,12,07,34,43.30
2012,03,12,07,35,42.50
2012,03,12,07,36,33.50
2012,03,12,07,37,43.00
2012,03,12,07,38,46.70
2012,03,12,07,39,48.00
2012,03,12,07,40,45.10
2012,03,12,07,41,44.60
2012,03,12,07,42,43.60
2012,03,12,07,43,44.30
2012,03,12,07,44,45.80
2012,03,12,07,45,43.90
2012,03,12,07,46,52.10
2012,03,12,07,47,50.50
2012,03,12,07,48,49.60
2012,03,12,07,49,42.10
2012,03,12,07,50,45.70
2012,03,12,07,51,47.30
2012,03,12,07,52,55.60
2012,03,12,07,53,53.30
2012,03,12,07,54,49.70
2012,03,12,07,55,42.40
2012,03,12,07,56,47.30
2012,03,12,07,57,45.30
2012,03,12,07,58,41.80
2012,03,12,07,59,50.30
2012,03,12,08,00,47.90
2012,03,12,08,01,45.80
2012,03,12,08,02,46.30
2012,03,12,08,03,46.30
2012,03,12,08,04,47.40
2012,03,12,08,05,38.40
2012,03,12,08,06,38.20
2012,03,12,08,07,45.10
2012,03,12,08,08,48.00
2012,03,12,08,09,48.00
2012,03,12,08,10,47.80
2012,03,12,08,11,50.00
2012,03,12,08,12,49.90
2012,03,12,08,13,45.80
2012,03,12,08,14,50.80
2012,03,12,08,15,50.50
2012,03,12,08,16,46.00
2012,03,12,08,17,46.30
2012,03,12,08,18,43.70
2012,03,12,08,19,42.90
2012,03,12,08,20,41.00
2012,03,12,08,21,47.40
2012,03,12,08,22,42.70
2012,03,12,08,23,49.50
2012,03,12,08,24,40.10
2012,03,12,08,25,46.90
2012,03,12,08,26,38.40
2012,03,12,08,27,41.10
2012,03,12,08,28,45.90
2012,03,12,08,29,48.80
2012,03,12,08,30,46.70
2012,03,12,08,31,45.30
2012,03,12,08,32,48.50
2012,03,12,08,33,40.90
2012,03,12,08,34,41.10
2012,03,12,08,35,45.00
2012,03,12,08,36,37.10
2012,03,12,08,37,53.90
2012,03,12,08,38,47.10
2012,03,12,08,39,39.00
2012,03,12,08,40,43.50
2012,03,12,08,41,37.30
2012,03,12,08,42,47.60
2012,03,12,08,43,45.10
2012,03,12,08,44,37.50
2012,03,12,08,45,48.10
2012,03,12,08,46,40.80
2012,03,12,08,47,44.40
2012,03,12,08,48,47.80
2012,03,12,08,49,44.30
2012,03,12,08,50,45.10
2012,03,12,08,51,49.80
2012,03,12,08,52,40.20
2012,03,12,08,53,43.50
2012,03,12,08,54,47.80
2012,03,12,08,55,43.80
2012,03,12,08,56,47.90
2012,03,12,08,57,45.00
2012,03,12,08,58,43.80
2012,03,12,08,59,37.40
2012,03,12,09,00,49.20
2012,03,12,09,01,41.20
2012,03,12,09,02,40.70
2012,03,12,09,03,43.20
2012,03,12,09,04,51.80
2012,03,12,09,05,45.70
2012,03,12,09,06,40.20
2012,03,12,09,07,36.80
2012,03,12,09,08,47.30
2012,03,12,09,09,47.50
2012,03,12,09,10,41.20
2012,03,12,09,11,52.00
2012,03,12,09,12,51.60
2012,03,12,09,13,50.30
2012,03,12,09,14,45.00
2012,03,12,09,15,44.80
2012,03,12,09,16,44.60
2012,03,12,09,17,45.00
2012,03,12,09,18,39.00
2012,03,12,09,19,49.40
2012,03,12,09,20,41.50
2012,03,12,09,21,41.60
2012,03,12,09,22,51.40
2012,03,12,09,23,48.30
2012,03,12,09,24,46.70
2012,03,12,09,25,40.30
2012,03,12,09,26,43.90
2012,03,12,09,27,48.80
2012,03,12,09,28,49.20
2012,03,12,09,29,50.00
2012,03,12,09,30,36.20
2012,03,12,09,31,53.70
2012,03,12,09,32,51.50
2012,03,12,09,33,51.40
2012,03,12,09,34,40.90
2012,03,12,09,35,44.70
2012,03,12,09,36,47.10
2012,03,12,09,37,43.80
2012,03,12,09,38,49.60
2012,03,12,09,39,51.50
2012,03,12,09,40,45.10
2012,03,12,09,41,42.90
2012,03,12,09,42,44.70
2012,03,12,09,43,47.30
2012,03,12,09,44,40.10
2012,03,12,09,45,47.10
2012,03,12,09,46,49.60
2012,03,12,09,47,47.50
2012,03,12,09,48,38.10
2012,03,12,09,49,46.70
2012,03,12,09,50,41.50
2012,03,12,09,51,36.90
2012,03,12,09,52,45.20
2012,03,12,09,53,42.60
2012,03,12,09,54,46.00
2012,03,12,09,55,40.70
2012,03,12,09,56,48.10
2012,03,12,09,57,42.80
2012,03,12,09,58,49.20
2012,03,12,09,59,45.90
2012,03,12,10,00,41.70
2012,03,12,10,01,33.60
2012,03,12,10,02,26.40
2012,03,12,10,03,40.20
2012,03,12,10,04,44.50
2012,03,12,10,05,43.30
2012,03,12,10,06,45.80
2012,03,12,10,07,40.40
2012,03,12,10,08,36.30
2012,03,12,10,09,44.90
2012,03,12,10,10,40.40
2012,03,12,10,11,42.90
2012,03,12,10,12,33.90
2012,03,12,10,13,40.90
2012,03,12,10,14,38.70
2012,03,12,10,15,35.60
2012,03,12,10,16,38.00
2012,03,12,10,17,30.70
2012,03,12,10,18,38.50
2012,03,12,10,19,37.00
2012,03,12,10,20,36.80
2012,03,12,10,21,27.80
2012,03,12,10,22,39.10
2012,03,12,10,23,36.80
2012,03,12,10,24,29.20
2012,03,12,10,25,33.20
2012,03,12,10,26,25.20
2012,03,12,10,27,36.20
2012,03,12,10,28,36.00
2012,03,12,10,29,35.10
2012,03,12,10,30,41.30
2012,03,12,10,31,33.80
2012,03,12,10,32,36.90
2012,03,12,10,33,36.40
2012,03,12,10,34,30.90
2012,03,12,10,35,30.90
2012,03,12,10,36,41.00
2012,03,12,10,37,29.60
2012,03,12,10,38,26.90
2012,03,12,10,39,29.00
2012,03,12,10,40,33.90
2012,03,12,10,41,42.10
2012,03,12,10,42,27.80
2012,03,12,10,43,31.70
2012,03,12,10,44,38.50
2012,03,12,10,45,35.50
2012,03,12,10,46,42.30
2012,03,12,10,47,41.00
2012,03,12,10,48,38.80
2012,03,12,10,49,34.70
2012,03,12,10,50,31.00
2012,03,12,10,51,27.70
2012,03,12,10,52,27.00
2012,03,12,10,53,32.70
2012,03,12,10,54,29.90
2012,03,12,10,55,35.50
2012,03,12,10,56,30.00
2012,03,12,10,57,19.60
2012,03,12,10,58,15.70
2012,03,12,10,59,23.50
2012,03,12,11,00,23.90
2012,03,12,11,01,19.30
2012,03,12,11,02,22.20
2012,03,12,11,03,21.60
2012,03,12,11,04,26.80
2012,03,12,11,05,19.90
2012,03,12,11,06,29.40
2012,03,12,11,07,30.20
2012,03,12,11,08,24.50
2012,03,12,11,09,26.70
2012,03,12,11,10,20.00
2012,03,12,11,11,23.80
2012,03,12,11,12,25.20
2012,03,12,11,13,22.00
2012,03,12,11,14,22.00
2012,03,12,11,15,15.40
2012,03,12,11,16,15.20
2012,03,12,11,17,19.20
2012,03,12,11,18,19.50
2012,03,12,11,19,19.20
2012,03,12,11,20,26.00
2012,03,12,11,21,21.10
2012,03,12,11,22,24.80
2012,03,12,11,23,19.80
2012,03,12,11,24,17.50
2012,03,12,11,25,21.20
2012,03,12,11,26,20.20
2012,03,12,11,27,25.80
2012,03,12,11,28,17.60
2012,03,12,11,29,23.00
2012,03,12,11,30,21.10
2012,03,12,11,31,18.90
2012,03,12,11,32,17.30
2012,03,12,11,33,15.30
2012,03,12,11,34,21.90
2012,03,12,11,35,15.40
2012,03,12,11,36,10.60
2012,03,12,11,37,10.30
2012,03,12,11,38,11.50
2012,03,12,11,39,17.10
2012,03,12,11,40,14.70
2012,03,12,11,41,19.10
2012,03,12,11,42,10.00
2012,03,12,11,43,11.90
2012,03,12,11,44,8.80
2012,03,12,11,45,16.30
2012,03,12,11,46,11.20
2012,03,12,11,47,9.70
2012,03,12,11,48,13.10
2012,03,12,11,49,5.10
2012,03,12,11,50,3.90
2012,03,12,11,51,8.60
2012,03,12,11,52,7.20
2012,03,12,11,53,3.10
2012,03,12,11,54,6.90
2012,03,12,11,55,6.40
2012,03,12,11,56,9.60
2012,03,12,11,57,8.00
2012,03,12,11,58,9.30
2012,03,12,11,59,6.90
2012,03,12,12,00,7.90
2012,03,12,12,01,5.40
2012,03,12,12,02,5.20
2012,03,12,12,03,2.90
2012,03,12,12,04,6.50
2012,03,12,12,05,4.80
2012,03,12,12,06,5.10
2012,03,12,12,07,3.10
2012,03,12,12,08,0.20
2012,03,12,12,09,0.00
2012,03,12,12,10,0.20
2012,03,12,12,11,0.20
2012,03,12,12,12,1.80
2012,03,12,12,13,0.60
2012,03,12,12,14,0.10
2012,03,12,12,15,0.30
2012,03,12,12,16,0.00
2012,03,12,12,17,0.00
2012,03,12,12,18,0.00
2012,03,12,12,19,0.00
2012,03,12,12,20,0.50
2012,03,12,12,21,0.00
2012,03,12,12,22,0.00
2012,03,12,12,23,0.00
2012,03,12,12,24,0.00
2012,03,12,12,25,0.00
2012,03,12,12,26,0.00
2012,03,12,12,27,0.00
2012,03,12,12,28,0.00
2012,03,12,12,29,0.20
2012,03,12,12,30,0.00
2012,03,12,12,31,0.00
2012,03,12,12,32,1.40
2012,03,12,12,33,0.00
2012,03,12,12,34,0.10
2012,03,12,12,35,0.00
2012,03,12,12,36,0.00
2012,03,12,12,37,0.00
2012,03,12,12,38,0.00
2012,03,12,12,39,2.40
2012,03,12,12,40,0.10
2012,03,12,12,41,0.30
2012,03,12,12,42,1.80
2012,03,12,12,43,0.00
2012,03,12,12,44,0.00
2012,03,12,12,45,0.00
2012,03,12,12,46,0.00
2012,03,12,12,47,0.00
2012,03,12,12,48,0.00
2012,03,12,12,49,0.00
2012,03,12,12,50,0.00
2012,03,12,12,51,0.00
2012,03,12,12,52,0.00
2012,03,12,12,53,0.00
2012,03,12,12,54,0.10
2012,03,12,12,55,0.10
2012,03,12,12,56,0.00
2012,03,12,12,57,0.00
2012,03,12,12,58,1.40
2012,03,12,12,59,0.20
2012,03,12,13,00,0.00
2012,03,12,13,01,0.00
2012,03,12,13,02,0.00
2012,03,12,13,03,0.00
2012,03,12,13,04,0.10
2012,03,12,13,05,0.00
2012,03,12,13,06,0.10
2012,03,12,13,07,0.50
2012,03,12,13,08,0.00
2012,03,12,13,09,0.00
2012,03,12,13,10,0.70
2012,03,12,13,11,0.00
2012,03,12,13,12,0.00
2012,03,12,13,13,0.00
2012,03,12,13,14,0.00
2012,03,12,13,15,0.10
2012,03,12,13,16,0.00
2012,03,12,13,17,0.00
2012,03,12,13,18,0.00
2012,03,12,13,19,0.00
2012,03,12,13,20,0.00
2012,03,12,13,21,0.10
2012,03,12,13,22,0.00
2012,03,12,13,23,0.00
2012,03,12,13,24,0.00
2012,03,12,13,25,0.00
2012,03,12,13,26,0.10
2012,03,12,13,27,0.00
2012,03,12,13,28,0.00
2012,03,12,13,29,0.00
2012,03,12,13,30,0.00
2012,03,12,13,31,0.00
2012,03,12,13,32,0.00
2012,03,12,13,33,0.00
2012,03,12,13,34,0.00
2012,03,12,13,35,0.00
2012,03,12,13,36,0.00
2012,03,12,13,37,0.10
2012,03,12,13,38,0.10
2012,03,12,13,39,0.00
2012,03,12,13,40,0.00
2012,03,12,13,41,0.00
2012,03,12,13,42,0.00
2012,03,12,13,43,0.00
2012,03,12,13,44,0.00
2012,03,12,13,45,0.00
2012,03,12,13,46,0.00
2012,03,12,13,47,0.00
2012,03,12,13,48,0.00
2012,03,12,13,49,0.00
2012,03,12,13,50,0.00
2012,03,12,13,51,0.00
2012,03,12,13,52,0.00
2012,03,12,13,53,0.00
2012,03,12,13,54,0.00
2012,03,12,13,55,0.00
2012,03,12,13,56,0.00
2012,03,12,13,57,0.00
2012,03,12,13,58,0.00
2012,03,12,13,59,0.00
2012,03,12,14,00,0.00
2012,03,12,14,01,0.00
2012,03,12,14,02,0.10
2012,03,12,14,03,0.00
2012,03,12,14,04,0.00
2012,03,12,14,05,0.60
2012,03,12,14,06,1.00
2012,03,12,14,07,0.00
2012,03,12,14,08,0.00
2012,03,12,14,09,0.00
2012,03,12,14,10,0.00
2012,03,12,14,11,0.00
2012,03,12,14,12,0.00
2012,03,12,14,13,0.00
2012,03,12,14,14,0.20
2012,03,12,14,15,2.30
2012,03,12,14,16,0.00
2012,03,12,14,17,0.50
2012,03,12,14,18,1.80
2012,03,12,14,19,0.10
2012,03,12,14,20,4.30
2012,03,12,14,21,5.50
2012,03,12,14,22,0.70
2012,03,12,14,23,1.40
2012,03,12,14,24,6.20
2012,03,12,14,25,8.10
2012,03,12,14,26,5.20
2012,03,12,14,27,3.80
2012,03,12,14,28,4.40
2012,03,12,14,29,4.30
2012,03,12,14,30,4.70
2012,03,12,14,31,2.20
2012,03,12,14,32,2.80
2012,03,12,14,33,0.00
2012,03,12,14,34,0.10
2012,03,12,14,35,0.50
2012,03,12,14,36,0.50
2012,03,12,14,37,3.10
2012,03,12,14,38,0.90
2012,03,12,14,39,0.00
2012,03,12,14,40,0.00
2012,03,12,14,41,0.00
2012,03,12,14,42,0.00
2012,03,12,14,43,0.50
2012,03,12,14,44,2.60
2012,03,12,14,45,2.30
2012,03,12,14,46,1.40
2012,03,12,14,47,0.10
2012,03,12,14,48,0.80
2012,03,12,14,49,0.10
2012,03,12,14,50,0.00
2012,03,12,14,51,0.00
2012,03,12,14,52,0.10
2012,03,12,14,53,0.00
2012,03,12,14,54,0.00
2012,03,12,14,55,0.00
2012,03,12,14,56,0.00
2012,03,12,14,57,0.60
2012,03,12,14,58,0.00
2012,03,12,14,59,0.00
2012,03,12,15,00,0.10
2012,03,12,15,01,0.00
2012,03,12,15,02,1.10
2012,03,12,15,03,0.10
2012,03,12,15,04,0.00
2012,03,12,15,05,0.00
2012,03,12,15,06,0.00
2012,03,12,15,07,0.00
2012,03,12,15,08,0.00
2012,03,12,15,09,0.00
2012,03,12,15,10,0.00
2012,03,12,15,11,0.00
2012,03,12,15,12,0.00
2012,03,12,15,13,0.00
2012,03,12,15,14,0.00
2012,03,12,15,15,0.00
2012,03,12,15,16,0.00
2012,03,12,15,17,0.00
2012,03,12,15,18,0.00
2012,03,12,15,19,0.00
2012,03,12,15,20,0.00
2012,03,12,15,21,0.00
2012,03,12,15,22,0.00
2012,03,12,15,23,0.00
2012,03,12,15,24,0.00
2012,03,12,15,25,0.00
2012,03,12,15,26,0.00
2012,03,12,15,27,0.00
2012,03,12,15,28,0.00
2012,03,12,15,29,0.00
2012,03,12,15,30,0.00
2012,03,12,15,31,0.00
2012,03,12,15,32,0.10
2012,03,12,15,33,0.00
2012,03,12,15,34,0.00
2012,03,12,15,35,0.00
2012,03,12,15,36,0.00
2012,03,12,15,37,0.00
2012,03,12,15,38,0.00
2012,03,12,15,39,0.00
2012,03,12,15,40,0.00
2012,03,12,15,41,0.00
2012,03,12,15,42,0.00
2012,03,12,15,43,0.00
2012,03,12,15,44,0.00
2012,03,12,15,45,0.00
2012,03,12,15,46,0.00
2012,03,12,15,47,0.00
2012,03,12,15,48,0.00
2012,03,12,15,49,0.00
2012,03,12,15,50,0.00
2012,03,12,15,51,0.10
2012,03,12,15,52,0.10
2012,03,12,15,53,1.40
2012,03,12,15,54,2.10
2012,03,12,15,55,0.60
2012,03,12,15,56,1.30
2012,03,12,15,57,1.70
2012,03,12,15,58,0.00
2012,03,12,15,59,0.90
2012,03,12,16,00,1.40
2012,03,12,16,01,0.60
2012,03,12,16,02,0.30
2012,03,12,16,03,2.70
2012,03,12,16,04,3.70
2012,03,12,16,05,3.60
2012,03,12,16,06,3.30
2012,03,12,16,07,5.30
2012,03,12,16,08,4.70
2012,03,12,16,09,4.70
2012,03,12,16,10,3.10
2012,03,12,16,11,2.50
2012,03,12,16,12,5.80
2012,03,12,16,13,5.50
2012,03,12,16,14,4.10
2012,03,12,16,15,2.20
2012,03,12,16,16,3.00
2012,03,12,16,17,2.10
2012,03,12,16,18,0.20
2012,03,12,16,19,2.50
2012,03,12,16,20,1.70
2012,03,12,16,21,5.80
2012,03,12,16,22,5.20
2012,03,12,16,23,3.90
2012,03,12,16,24,2.60
2012,03,12,16,25,3.00
2012,03,12,16,26,5.30
2012,03,12,16,27,6.30
2012,03,12,16,28,6.20
2012,03,12,16,29,4.90
2012,03,12,16,30,4.60
2012,03,12,16,31,4.80
2012,03,12,16,32,3.40
2012,03,12,16,33,2.40
2012,03,12,16,34,0.50
2012,03,12,16,35,1.60
2012,03,12,16,36,3.20
2012,03,12,16,37,3.70
2012,03,12,16,38,2.00
2012,03,12,16,39,0.00
2012,03,12,16,40,0.00
2012,03,12,16,41,0.00
2012,03,12,16,42,1.40
2012,03,12,16,43,1.80
2012,03,12,16,44,2.40
2012,03,12,16,45,0.30
2012,03,12,16,46,0.70
2012,03,12,16,47,0.00
2012,03,12,16,48,0.00
2012,03,12,16,49,1.60
2012,03,12,16,50,1.80
2012,03,12,16,51,1.10
2012,03,12,16,52,0.20
2012,03,12,16,53,0.00
2012,03,12,16,54,0.00
2012,03,12,16,55,0.00
2012,03,12,16,56,3.00
2012,03,12,16,57,3.50
2012,03,12,16,58,3.80
2012,03,12,16,59,1.10
2012,03,12,17,00,0.00
2012,03,12,17,01,0.10
2012,03,12,17,02,0.80
2012,03,12,17,03,2.40
2012,03,12,17,04,2.90
2012,03,12,17,05,3.50
2012,03,12,17,06,1.90
2012,03,12,17,07,3.80
2012,03,12,17,08,1.50
2012,03,12,17,09,1.10
2012,03,12,17,10,0.10
2012,03,12,17,11,0.60
2012,03,12,17,12,0.80
2012,03,12,17,13,4.30
2012,03,12,17,14,0.20
2012,03,12,17,15,3.80
2012,03,12,17,16,2.20
2012,03,12,17,17,4.20
2012,03,12,17,18,1.90
2012,03,12,17,19,4.20
2012,03,12,17,20,3.50
2012,03,12,17,21,0.70
2012,03,12,17,22,1.40
2012,03,12,17,23,4.10
2012,03,12,17,24,5.00
2012,03,12,17,25,0.80
2012,03,12,17,26,1.20
2012,03,12,17,27,3.80
2012,03,12,17,28,3.60
2012,03,12,17,29,0.40
2012,03,12,17,30,3.40
2012,03,12,17,31,0.50
2012,03,12,17,32,1.40
2012,03,12,17,33,2.00
2012,03,12,17,34,2.60